Location: Avon
(37.7514°N, 90.2235°W)
Time: 00:48:54
(UTC+00:00)

Vanguard 2 Rocket - Visible Passes

Search period start: 05 November 2024 00:00
Search period end: 15 November 2024 00:00
Orbit: 553 x 3297 km, 32.9° (Epoch: 04 November)

Date Brightness Start Highest point End Pass type
(mag) Time Alt. Az. Time Alt. Az. Time Alt. Az.
07 Nov 11.1 11:10:00 10° SSE 11:17:43 15° SE 11:26:26 10° E visible
09 Nov 10.8 11:12:09 10° S 11:22:17 22° SE 11:34:43 10° E visible
10 Nov 10.9 10:14:26 10° SE 10:18:20 11° SE 10:22:35 10° ESE visible
11 Nov 10.5 11:15:43 10° S 11:26:52 29° SE 11:41:33 10° E visible
12 Nov 10.6 10:15:12 10° SSE 10:22:51 17° SE 10:32:23 10° E visible
13 Nov 10.3 11:20:01 10° SSW 11:31:31 36° SE 11:47:40 10° E visible
14 Nov 10.3 10:18:28 10° S 10:27:24 24° SE 10:39:34 10° E visible
